Terminal Aerodrome Forecast
Issued by NWS

Home | Current Version | Previous Version | Text Only | Print | Product List | Glossary On
Versions: 1 2 3 4 5 6 7 8 9 10 11 12 13
000
FTUS44 KTSA 290500
TAFFYV
TAF
KFYV 290521Z 2906/3006 18005KT P6SM SCT250
     FM290900 16005KT P6SM BKN250
     FM291400 18008KT P6SM SCT050 OVC250
     FM291800 21010KT P6SM BKN250 PROB30 2918/2924 P6SM -TSRA
      BKN050CB
     FM300000 17006KT P6SM FEW250 PROB30 3000/3006 P6SM -TSRA
      BKN050CB=

USA.gov is the U.S. government's official web portal to all federal, state and local government web resources and services.